EW9807 Weather Reports


time (UTC)temp
C
wind
direction
speed
KPH
gust
KPH
rain 1hr
cm
rain 24hr
cm
rain mn
cm
humidity
%
barometer
mb
20260504201055 25 162 3.2 16.1 0.00 0.00 0.00 38 1014.8
20260504200546 24 200 3.2 8.0 0.00 0.00 0.00 35 1014.8
20260504200051 24 188 1.6 8.0 0.00 0.00 0.00 36 1014.9
20260504195558 24 47 1.6 11.3 0.00 0.00 0.00 36 1014.9
20260504195051 25 181 8.0 11.3 0.00 0.00 0.00 33 1015.0
20260504194558 25 206 3.2 12.9 0.00 0.00 0.00 33 1015.0
20260504194047 25 131 4.8 12.9 0.00 0.00 0.00 31 1015.1
20260504193052 25 217 3.2 8.0 0.00 0.00 0.00 36 1015.3
20260504192555 25 162 4.8 12.9 0.00 0.00 0.00 39 1015.4
20260504192103 25 186 4.8 12.9 0.00 0.00 0.00 40 1015.4
20260504191555 24 167 3.2 4.8 0.00 0.00 0.00 37 1015.6
20260504191106 25 227 1.6 8.0 0.00 0.00 0.00 37 1015.6
20260504190553 25 189 4.8 8.0 0.00 0.00 0.00 40 1015.6
20260504185549 25 255 6.4 12.9 0.00 0.00 0.00 37 1015.8
20260504185057 25 229 4.8 12.9 0.00 0.00 0.00 40 1015.8
20260504184601 24 101 1.6 11.3 0.00 0.00 0.00 38 1015.9
20260504184050 24 214 3.2 8.0 0.00 0.00 0.00 38 1016.0
20260504183602 25 209 3.2 11.3 0.00 0.00 0.00 39 1016.0
20260504182602 24 176 3.2 6.4 0.00 0.00 0.00 37 1016.2
20260504182052 24 148 0.0 8.0 0.00 0.00 0.00 37 1016.2
20260504181544 25 167 3.2 12.9 0.00 0.00 0.00 35 1016.3
20260504181055 25 189 6.4 12.9 0.00 0.00 0.00 35 1016.4
20260504180602 25 152 6.4 11.3 0.00 0.00 0.00 39 1016.4
20260504180109 24 202 3.2 11.3 0.00 0.00 0.00 39 1016.4
20260504175552 23 172 1.6 11.3 0.00 0.00 0.00 38 1016.5
20260504175103 23 82 3.2 9.7 0.00 0.00 0.00 39 1016.5
20260504174553 24 196 4.8 11.3 0.00 0.00 0.00 41 1016.7
20260504173555 24 155 3.2 9.7 0.00 0.00 0.00 42 1016.8
20260504173101 23 169 3.2 9.7 0.00 0.00 0.00 43 1016.8
20260504172549 23 202 0.0 9.7 0.00 0.00 0.00 41 1016.9
20260504172100 23 219 4.8 9.7 0.00 0.00 0.00 41 1017.0
20260504171551 22 46 1.6 4.8 0.00 0.00 0.00 41 1017.1
20260504171058 22 47 3.2 6.4 0.00 0.00 0.00 42 1017.1
20260504170550 23 130 3.2 6.4 0.00 0.00 0.00 42 1017.1
20260504170504 22 187 3.2 6.4 0.00 0.00 0.00 42 1016.7
20260504170134 23 288 1.6 8.0 0.00 0.00 0.00 42 1017.1
20260504151052 20 195 6.4 12.9 0.00 0.00 0.00 46 1018.3
20260504150543 20 176 1.6 6.4 0.00 0.00 0.00 48 1018.2
20260504141054 17 165 4.8 8.0 0.00 0.00 0.00 64 1018.6
20260504140546 16 212 1.6 8.0 0.00 0.00 0.00 66 1018.7
20260504130545 12 184 1.6 3.2 0.00 0.00 0.00 78 1018.5
20260504110553 6 295 0.0 0.0 0.00 0.00 0.00 93 1017.8
20260504110508 6 295 0.0 0.0 0.00 0.00 0.00 93 1017.6
20260504110135 6 295 0.0 0.0 0.00 0.00 0.00 93 1017.7
20260504100555 7 169 0.0 0.0 0.00 0.00 0.00 93 1017.7
20260504081600 7 169 0.0 0.0 0.00 0.00 0.00 90 1018.0
20260504050554 10 169 0.0 0.0 0.00 0.00 0.00 84 1018.6
20260504045545 10 169 0.0 0.0 0.00 0.00 0.00 85 1018.8
20260504045057 10 169 0.0 0.0 0.00 0.00 0.00 84 1018.8
20260504044545 10 169 0.0 0.0 0.00 0.00 0.00 83 1018.9
20260504043605 10 169 0.0 0.0 0.00 0.00 0.00 82 1018.8
20260504043052 10 169 0.0 0.0 0.00 0.00 0.00 81 1018.7
20260504042600 10 169 0.0 1.6 0.00 0.00 0.00 81 1018.8
20260504042049 10 169 0.0 1.6 0.00 0.00 0.00 80 1018.8
20260504041601 10 169 0.0 0.0 0.00 0.00 0.00 78 1018.8
20260504041053 11 169 0.0 0.0 0.00 0.00 0.00 79 1018.8
20260504040558 11 169 0.0 0.0 0.00 0.00 0.00 78 1018.7
20260504040116 11 169 0.0 0.0 0.00 0.00 0.00 78 1018.7
20260504035555 11 169 0.0 0.0 0.00 0.00 0.00 79 1018.7
20260504034048 11 169 0.0 0.0 0.00 0.00 0.00 77 1018.8
20260504033600 11 169 0.0 0.0 0.00 0.00 0.00 77 1018.8
20260504032557 11 169 0.0 0.0 0.00 0.00 0.00 75 1018.9
20260504032103 11 169 0.0 0.0 0.00 0.00 0.00 74 1018.8
20260504031554 12 169 0.0 0.0 0.00 0.00 0.00 74 1018.9
20260504031101 12 169 0.0 0.0 0.00 0.00 0.00 74 1018.7
20260504030547 12 169 0.0 0.0 0.00 0.00 0.00 74 1018.7
20260504025058 12 169 0.0 0.0 0.00 0.00 0.00 71 1018.7
20260504024549 12 169 0.0 0.0 0.00 0.00 0.00 72 1018.7
20260504024052 12 169 0.0 0.0 0.00 0.00 0.00 72 1018.7
20260504023601 12 169 0.0 0.0 0.00 0.00 0.00 71 1018.6
20260504023050 12 169 0.0 0.0 0.00 0.00 0.00 71 1018.5
20260504022558 12 169 0.0 0.0 0.00 0.00 0.00 73 1018.4
20260504021104 13 169 0.0 0.0 0.00 0.00 0.00 72 1018.2
20260504020553 13 169 0.0 0.0 0.00 0.00 0.00 72 1018.1
20260504020101 13 169 0.0 0.0 0.00 0.00 0.00 70 1018.0
20260504020001 13 169 0.0 0.0 0.00 0.00 0.00 70 1017.8
20260504015607 13 169 0.0 0.0 0.00 0.00 0.00 70 1018.0
20260504015054 13 169 0.0 0.0 0.00 0.00 0.00 68 1017.8
20260504015009 13 169 0.0 0.0 0.00 0.00 0.00 68 1017.6
20260504014053 13 169 0.0 0.0 0.00 0.00 0.00 65 1017.8
20260504013601 13 169 0.0 0.0 0.00 0.00 0.00 65 1017.7
20260504013051 14 169 0.0 0.0 0.00 0.00 0.00 62 1017.6
20260504012551 14 169 0.0 0.0 0.00 0.00 0.00 62 1017.5
20260504012102 15 169 0.0 0.0 0.00 0.00 0.00 63 1017.4
20260504011058 15 169 0.0 0.0 0.00 0.00 0.00 61 1017.3
20260504010546 15 169 0.0 0.0 0.00 0.00 0.00 60 1017.3
20260504010057 15 169 0.0 0.0 0.00 0.00 0.00 59 1017.2
20260504005601 15 169 0.0 0.0 0.00 0.00 0.00 60 1017.3
20260504004558 16 169 0.0 0.0 0.00 0.00 0.00 55 1017.2
20260504004045 16 169 0.0 0.0 0.00 0.00 0.00 56 1017.1
20260504003556 16 169 0.0 1.6 0.00 0.00 0.00 53 1017.1
20260504003102 17 169 0.0 1.6 0.00 0.00 0.00 52 1017.0
20260504002604 17 169 0.0 0.0 0.00 0.00 0.00 53 1017.1
20260504002048 17 169 0.0 0.0 0.00 0.00 0.00 50 1016.9
20260504001558 17 169 0.0 0.0 0.00 0.00 0.00 49 1016.9
20260504001104 17 169 0.0 0.0 0.00 0.00 0.00 48 1016.9
20260504000103 18 169 0.0 0.0 0.00 0.00 0.00 47 1016.9
20260503235547 18 169 0.0 0.0 0.00 0.00 0.00 46 1016.8
20260503235055 18 169 0.0 1.6 0.00 0.00 0.00 48 1016.8
20260503234601 18 169 0.0 0.0 0.00 0.00 0.00 46 1016.8
20260503234050 18 169 0.0 0.0 0.00 0.00 0.00 44 1016.9
20260503233558 18 169 0.0 1.6 0.00 0.00 0.00 43 1016.9
20260503232557 18 169 0.0 1.6 0.00 0.00 0.00 43 1016.8
20260503231556 19 178 0.0 4.8 0.00 0.00 0.00 41 1016.8
20260503231046 19 178 1.6 4.8 0.00 0.00 0.00 41 1016.8
20260503230552 19 209 0.0 3.2 0.00 0.00 0.00 43 1016.9
20260503230100 20 209 1.6 12.9 0.00 0.00 0.00 40 1016.9
20260503225603 20 174 1.6 12.9 0.00 0.00 0.00 40 1016.9
20260503225052 20 213 1.6 9.7 0.00 0.00 0.00 40 1016.9
20260503224602 20 179 4.8 9.7 0.00 0.00 0.00 38 1016.9
20260503224053 20 179 0.0 1.6 0.00 0.00 0.00 39 1016.9
20260503223601 20 179 0.0 4.8 0.00 0.00 0.00 40 1016.9
20260503223049 20 179 3.2 4.8 0.00 0.00 0.00 39 1016.9
20260503222552 20 169 1.6 11.3 0.00 0.00 0.00 39 1016.9
20260503222102 20 169 6.4 11.3 0.00 0.00 0.00 38 1017.0
20260503221551 20 331 1.6 8.0 0.00 0.00 0.00 40 1016.9
20260503221103 20 181 3.2 6.4 0.00 0.00 0.00 38 1017.0
20260503220553 20 166 1.6 8.0 0.00 0.00 0.00 37 1017.1
20260503215554 21 198 4.8 12.9 0.00 0.00 0.00 37 1017.1
20260503215100 21 208 3.2 11.3 0.00 0.00 0.00 38 1017.1
20260503214607 21 236 3.2 11.3 0.00 0.00 0.00 40 1017.1
20260503214054 20 184 1.6 8.0 0.00 0.00 0.00 40 1017.2
20260503213602 20 68 1.6 3.2 0.00 0.00 0.00 39 1017.2
20260503213109 21 68 1.6 8.0 0.00 0.00 0.00 36 1017.2
20260503212556 21 154 4.8 12.9 0.00 0.00 0.00 37 1017.3
20260503212102 21 204 3.2 12.9 0.00 0.00 0.00 38 1017.3
20260503211059 21 183 1.6 14.5 0.00 0.00 0.00 36 1017.3
20260503210504 20 155 4.8 14.5 0.00 0.00 0.00 39 1017.1
20260503210130 20 149 1.6 4.8 0.00 0.00 0.00 40 1017.3
20260503205104 20 321 1.6 4.8 0.00 0.00 0.00 40 1017.4
20260503204552 20 320 0.0 4.8 0.00 0.00 0.00 40 1017.4
20260503204056 20 321 1.6 4.8 0.00 0.00 0.00 38 1017.5
20260503203057 20 176 0.0 6.4 0.00 0.00 0.00 40 1017.6
20260503202604 20 171 3.2 9.7 0.00 0.00 0.00 41 1017.7
20260503202051 21 172 3.2 14.5 0.00 0.00 0.00 40 1017.7
20260503201553 21 214 8.0 14.5 0.00 0.00 0.00 39 1017.9